Regional Weather Roundup
Issued by NWS

Home | Current Version | Previous Version | Text Only | Print | Product List | Glossary On
Versions: 1 2 3 4 5 6 7 8 9 10 11 12 13 14 15 16 17 18 19 20 21 22 23 24 25 26 27 28 29 30 31 32 33 34 35 36 37 38 39 40 41 42 43 44 45 46 47 48 49 50
000
ASUS44 KOUN 072110
RWROK

WEATHER ROUNDUP FOR OKLAHOMA
NATIONAL WEATHER SERVICE NORMAN OK
400 PM CDT TUE JUL 07 2015

NOTE: "FAIR" INDICATES FEW OR NO CLOUDS BELOW 12,000 FEET WITH NO
      SIGNIFICANT WEATHER AND/OR OBSTRUCTIONS TO VISIBILITY.

OKZ001>007-009>012-014-015-017-072200-
NORTHWEST OKLAHOMA AND THE PANHANDLE

CITY           SKY/WX    TMP DP  RH WIND       PRES   REMARKS
GAGE           CLOUDY    63  60  90 NE13G21   30.09S FOG
GUYMON         MOSUNNY   74  52  46 NE10G23   30.10F HAZE
ENID/WOODRING  CLOUDY    68  63  83 N12G22    30.02F FOG
$$

OKZ016-021>023-033>039-044-045-072200-
SOUTHWEST OKLAHOMA

CITY           SKY/WX    TMP DP  RH WIND       PRES   REMARKS
LAWTON/REGL    HVY RAIN  71  69  93 N14       29.96S FOG
LAWTON/FT SILL HVY RAIN  70  70 100 N15G22    29.95S
FREDERICK      LGT RAIN  72  70  93 N18       29.93F
CLINTON        CLOUDY    68  63  84 NE21      30.04F
HOBART         CLOUDY    67  65  93 NE15      30.01S FOG
ALTUS AFB      CLOUDY    70  70  99 N18G25    29.98S
$$

OKZ018>020-024>031-072200-
CENTRAL OKLAHOMA

CITY           SKY/WX    TMP DP  RH WIND       PRES   REMARKS
OKLAHOMA CITY  LGT RAIN  69  68  96 NE15      29.99F FOG
OKC/WILEY POST RAIN      68  64  88 N12       30.00F FOG
OKC/TINKER AFB LGT RAIN  68  66  94 N7        29.98F
STILLWATER     LGT RAIN  67  65  93 NE10      30.02F FOG
GUTHRIE        LGT RAIN  67  65  93 NE9       30.01F FOG
$$

OKZ008-013-054>072-072200-
NORTHEAST OKLAHOMA

CITY           SKY/WX    TMP DP  RH WIND       PRES   REMARKS
TULSA          CLOUDY    71  65  81 N9        30.00R FOG
TULSA/JONES    RAIN      69  66  90 N3        30.01R FOG
PONCA CITY     CLOUDY    68  62  81 NE12      30.04S HAZE
BARTLESVILLE   CLOUDY    68  65  90 NE6       30.04S FOG
MUSKOGEE       RAIN      73  72  96 NE5       29.99S FOG
$$

OKZ032-040>043-046>053-073>077-072200-
SOUTH CENTRAL/SOUTHEAST OKLAHOMA

CITY           SKY/WX    TMP DP  RH WIND       PRES   REMARKS
ARDMORE/DWNTWN CLOUDY    79  72  78 W5        29.96S
MCALESTER      LGT RAIN  79  73  82 N8        29.96R
$$




USA.gov is the U.S. government's official web portal to all federal, state and local government web resources and services.